C/2018 N2 ( ASASSN )

Japanese version
Home page
Updated on July 17, 2018

---------------------------------------------------------------------

* Profile

Discovery Date July 7, 2018
Magnitude 16.4 mag
Discoverer All-Sky Automated Survey for Supernovae (ASASSN) program

* Orbital Elements

T 2019 Oct. 4.09355 TT                                  MPCW
q   3.0054453            (2000.0)            P               Q
                   Peri.   23.85145     +0.81020066     -0.44456914
                   Node    22.96021     +0.23898635     -0.34455345
e   1.0            Incl.   78.31835     +0.53521997     +0.82682598
From 26 observations 2018 July 7-15.

* Finding Charts

* Magnitudes Graph

        m1 = 5.5 + 5 log d + 10.0 log r

---------------------------------------------------------------------

The orbital elements are published on M.P.E.C. 2018-O01.
The charts are made with StellaNavigator Ver.10 (AstroArts).
The magnitudes graphs are made with Comet for Windows.

---------------------------------------------------------------------

Copyright(C) Seiichi Yoshida (comet@aerith.net). All rights reserved.